Location: Newark
(33.1119°N, 7.4058°W)
Time: 02:58:14
(UTC+00:00)

Hubble Space Telescope - Pass Details

Date: 20 November 2019
Orbit: 536 x 540 km, 28.5° (Epoch: 08 December)

Event Time Altitude Azimuth Distance (km) Brightness Sun altitude
Rises 17:48:27 0° 230° (SW) 2,664 5.9 -5.3°
Reaches altitude 10° 17:51:02 10° 216° (SW) 1,776 4.4 -5.8°
Maximum altitude 17:54:18 23° 163° (SSE) 1,159 2.5 -6.5°
Drops below altitude 10° 17:57:36 10° 110° (ESE) 1,781 3.0 -7.1°
Enters shadow 17:58:43 - 102° (ESE) 2,149 3.3 -7.3°
